San Angelo, TX

8:08 PM CDT on June 24, 2017 (GMT -0500)
San Angelo Regional-Mathis

Weather History for KSJT - July, 2014

Change the Weather History Date:

Thursday, July 24, 2014

  Actual Average Record
Temperature  
Mean Temperature 84 °F 84 °F  
Max Temperature 97 °F 96 °F 107 °F (1995)
Min Temperature 71 °F 72 °F 58 °F (1915)
Degree Days  
Heating Degree Days 0 0  
Month to date heating degree days 0 0  
Since 1 June heating degree days 0 0  
Since 1 July heating degree days 0 0  
Cooling Degree Days 19 19  
Month to date cooling degree days 427 431  
Year to date cooling degree days 1513 1355  
Since 1 June cooling degree days 911 895  
Growing Degree Days 34 (Base 50)    
Moisture  
Dew Point 64 °F    
Average Humidity 56    
Maximum Humidity 79    
Minimum Humidity 33    
Precipitation  
Precipitation 0.00 in 0.04 in 2.84 in (1911)
Month to date precipitation 0.77 0.94  
Year to date precipitation 11.33 11.55  
Sea Level Pressure  
Sea Level Pressure 29.98 in    
Wind  
Wind Speed 6 mph (East)    
Max Wind Speed 16 mph    
Max Gust Speed 21 mph    
Visibility 10 miles    
Events      
T = Trace of Precipitation, MM = Missing Value Source: NWS Daily Summary

Daily Weather History Graph

Daily Weather History Graph

Search for Another Location

Airport or City:

Trip Planner

Search our weather history database for the weather conditions in past years. The results will help you decide how hot, cold, wet, or windy it might be!

Date:

Astronomy

Jul. 24, 2014 Rise Set
Actual Time 6:53 AM CDT 8:43 PM CDT
Civil Twilight 6:26 AM CDT 9:10 PM CDT
Nautical Twilight 5:54 AM CDT 9:42 PM CDT
Astronomical Twilight 5:19 AM CDT 10:16 PM CDT
Moon 5:01 AM CDT (7/24) 7:01 PM CDT (7/24)
Length of Visible Light 14h 43m
Length of Day
13h 49m
Waning Crescent, 5% of the Moon is Illuminated
Jul 24
Waning Crescent
Jul 26
New
Aug 3
First Quarter
Aug 10
Full
Aug 17
Last Quarter

Hourly Weather History & Observations

Time (CDT) Temp. Heat Index Dew Point Humidity Pressure Visibility Wind Dir Wind Speed Gust Speed Precip Events Conditions
12:51 AM 79.0 °F - 64.9 °F 62% 30.02 in 10.0 mi East 5.8 mph - N/A   Clear
1:51 AM 80.1 °F 81.7 °F 64.0 °F 58% 30.02 in 10.0 mi ESE 6.9 mph - N/A   Clear
2:51 AM 77.0 °F - 64.0 °F 64% 30.01 in 10.0 mi Calm Calm - N/A   Clear
3:51 AM 75.9 °F - 64.0 °F 67% 30.00 in 10.0 mi Calm Calm - N/A   Clear
4:51 AM 75.0 °F - 64.0 °F 69% 29.99 in 10.0 mi Calm Calm - N/A   Clear
6:51 AM 71.1 °F - 63.0 °F 75% 30.02 in 10.0 mi Calm Calm - N/A   Clear
7:51 AM 75.0 °F - 64.9 °F 71% 30.03 in 10.0 mi Calm Calm - N/A   Clear
8:51 AM 79.0 °F - 66.0 °F 64% 30.03 in 10.0 mi Calm Calm - N/A   Clear
9:51 AM 82.0 °F 84.1 °F 66.0 °F 58% 30.04 in 10.0 mi Calm Calm - N/A   Clear
10:51 AM 84.9 °F 87.6 °F 66.9 °F 55% 30.03 in 10.0 mi Calm Calm - N/A   Clear
11:51 AM 90.0 °F 92.4 °F 66.0 °F 45% 30.02 in 10.0 mi Calm Calm - N/A   Clear
12:51 PM 93.0 °F 94.2 °F 63.0 °F 37% 30.01 in 10.0 mi NNE 10.4 mph - N/A   Clear
1:51 PM 95.0 °F 96.0 °F 63.0 °F 34% 29.98 in 10.0 mi ENE 13.8 mph - N/A   Clear
2:51 PM 96.1 °F 96.9 °F 62.1 °F 32% 29.96 in 10.0 mi ESE 9.2 mph - N/A   Clear
3:51 PM 96.1 °F 97.3 °F 63.0 °F 33% 29.94 in 10.0 mi ENE 4.6 mph 20.7 mph N/A   Clear
4:51 PM 95.0 °F 96.0 °F 63.0 °F 34% 29.94 in 10.0 mi ENE 15.0 mph 21.9 mph N/A   Clear
5:51 PM 95.0 °F 95.6 °F 62.1 °F 33% 29.92 in 10.0 mi East 11.5 mph - N/A   Clear
6:51 PM 95.0 °F 96.0 °F 63.0 °F 34% 29.91 in 10.0 mi East 12.7 mph 20.7 mph N/A   Clear
7:51 PM 93.0 °F 93.8 °F 62.1 °F 36% 29.91 in 10.0 mi East 12.7 mph - N/A   Clear
8:51 PM 89.1 °F 89.0 °F 61.0 °F 39% 29.93 in 10.0 mi East 9.2 mph - N/A   Clear
9:51 PM 84.9 °F 85.4 °F 62.1 °F 46% 29.95 in 10.0 mi ESE 5.8 mph - N/A   Clear
10:51 PM 82.0 °F 83.1 °F 63.0 °F 52% 29.96 in 10.0 mi SE 8.1 mph - N/A   Clear
11:51 PM 82.0 °F 83.1 °F 63.0 °F 52% 29.98 in 10.0 mi South 5.8 mph - N/A   Clear